Regional Weather Roundup
Issued by NWS

Home | Current Version | Previous Version | Text Only | Print | Product List | Glossary On
Versions: 1 2 3 4 5 6 7 8 9 10 11 12 13 14 15 16 17 18 19 20 21 22 23 24 25 26 27 28 29 30 31 32 33 34 35 36 37 38 39 40 41 42 43 44 45 46 47 48 49 50
000
ASUS43 KLSX 211010
RWRMO

WEATHER SUMMARY FOR MISSOURI
NATIONAL WEATHER SERVICE SPRINGFIELD MO
500 AM CDT SUN OCT 21 2018

NOTE: "FAIR" INDICATES FEW OR NO CLOUDS BELOW 12,000 FEET WITH NO
       SIGNIFICANT WEATHER AND/OR OBSTRUCTIONS TO VISIBILITY.
       CURRENT SKY AND/OR WEATHER CONDITIONS ARE NOT AVAILABLE FOR
       CHILLICOTHE AND FARMINGTON.

MOZ001>031-035>038-043-044-053-054-211100-
...NORTHERN AND WESTERN MISSOURI...

CITY           SKY/WX    TMP DP  RH WIND       PRES   REMARKS
KANSAS CTY INT PTCLDY    36  24  62 SE10      30.38F WCI  28
KANSAS C DTWN  CLOUDY    39  24  55 E5        30.40F
LEE`S SUMMIT   CLOUDY    34  26  72 E9        30.39F WCI  27
ST JOSEPH      CLOUDY    33  27  78 SE6       30.38F WCI  28
CHILLICOTHE      N/A     29  26  89 CALM      30.43F
KIRKSVILLE     CLOUDY    28  23  81 SW5       30.41F WCI  23

$$
MOZ066>068-077>081-088>096-101>105-211100-
...SOUTHWEST MISSOURI...

CITY           SKY/WX    TMP DP  RH WIND       PRES   REMARKS
SPRINGFIELD    PTCLDY    36  28  73 E5        30.37F
JOPLIN         CLOUDY    36  32  85 E5        30.39F

$$
MOZ032>034-039>042-045>050-055>058-069>072-211100-
...CENTRAL MISSOURI...

CITY           SKY/WX    TMP DP  RH WIND       PRES   REMARKS
COLUMBIA       CLOUDY    32  24  72 W3        30.42R
JEFFERSON CITY CLOUDY    30  27  88 CALM      30.43S
ROLLA          CLOUDY    28  22  78 CALM      30.41R
SEDALIA        CLOUDY    30  27  88 CALM      30.43S
WHITEMAN AFB   CLOUDY    29  24  82 CALM      30.37F
WARRENSBURG    CLOUDY    32  28  86 CALM      30.42S
OSAGE BEACH    CLOUDY    28  25  88 CALM      30.43S

$$
MOZ051-052-059>065-211100-
...EAST CENTRAL MISSOURI...

CITY           SKY/WX    TMP DP  RH WIND       PRES   REMARKS
ST LOUIS INTL  CLOUDY    32  25  75 W3        30.41R
SPIRIT OF STL  CLOUDY    29  25  85 CALM      30.41R
ST CHARLES     CLOUDY    30  21  69 CALM      30.42R

$$
MOZ072>076-082>087-097>100-106>115-211100-
...SOUTH CENTRAL AND SOUTHEAST MISSOURI...

CITY           SKY/WX    TMP DP  RH WIND       PRES   REMARKS
CAPE GIRARDEAU FAIR      31  25  78 W5        30.40R WCI  26
FARMINGTON     FAIR      29  26  89 CALM      30.40S
POPLAR BLUFF   FAIR      34  30  85 CALM      30.42R
WEST PLAINS    CLOUDY    33  29  85 NE5       30.40S WCI  29

$$



USA.gov is the U.S. government's official web portal to all federal, state and local government web resources and services.